This demonstration page uses our WeatherBlox Daily Observations layout. Learn more.

Left ArrowRight Arrow

34.16533, -84.80231

Hourly Observations for July 22, 2017

Temp ( °F °C ) Dew Point ( °F °C ) Humidity (%) Winds ( mph kmh ) Pressure ( in mb ) Visibility ( mi km ) Precip ( " mm )
12:53 am 00:53 Clear with Mist and Fog 76 24.4 76 24.4 100 100 Calm 29.97 1015 6 10 0.00 0.00
1:53 am 01:53 Clear 79 26.1 75 23.9 88 88 Calm 29.96 1014 9 14 0.00 0.00
2:53 am 02:53 Clear 76 24.4 74 23.3 94 94 Calm 29.94 1014 9 14 0.00 0.00
3:53 am 03:53 Clear 73 22.8 73 22.8 100 100 Calm 29.94 1014 8 13 0.00 0.00
4:53 am 04:53 Clear with Mist and Fog 72 22.2 72 22.2 100 100 Calm 29.95 1014 6 10 0.00 0.00
5:53 am 05:53 Clear with Mist and Fog 73 22.8 73 22.8 100 100 Calm 29.96 1015 5 8 0.00 0.00
6:53 am 06:53 Sunny with Mist and Fog 72 22.2 72 22.2 100 100 Calm 29.98 1015 3 5 0.00 0.00
7:53 am 07:53 Sunny with Mist and Fog 75 23.9 75 23.9 100 100 Calm 29.99 1016 5 8 0.00 0.00
8:53 am 08:53 Sunny 79 26.1 76 24.4 90 90 Calm 30.02 1017 7 11 0.00 0.00
9:53 am 09:53 Sunny 81 27.2 76 24.4 85 85 Calm 30.01 1016 7 11 0.00 0.00
10:53 am 10:53 Sunny 85 29.4 78 25.6 80 80 VRB 5 7 30.01 1016 7 11 0.00 0.00
11:53 am 11:53 Sunny 88 31.1 78 25.6 73 73 Calm 30.00 1016 8 13 0.00 0.00
12:53 pm 12:53 Mostly Cloudy 89 31.7 77 25 68 68 VRB 3 6 29.99 1016 8 13 0.00 0.00
1:53 pm 13:53 Sunny 92 33.3 75 23.9 58 58 Calm 29.96 1014 9 14 0.00 0.00
2:53 pm 14:53 Mostly Sunny 93 33.9 75 23.9 56 56 VRB 3 6 29.94 1014 10 16 0.00 0.00
3:24 pm 15:24 Partly Cloudy with Nearby Thunderstorms 89 31.7 77 25 68 68 Calm 29.94 1014 10 16 0.00 0.00
3:53 pm 15:53 Mostly Sunny 83 28.3 74 23.3 74 74 S 10 17 29.95 1014 9 14 0.00 0.00
4:53 pm 16:53 Sunny 82 27.8 74 23.3 77 77 S 8 13 29.93 1013 10 16 0.00 0.00
5:53 pm 17:53 Sunny 84 28.9 75 23.9 74 74 SSW 5 7 29.92 1013 10 16 0.00 0.00
6:53 pm 18:53 Sunny 84 28.9 76 24.4 77 77 SSW 6 9 29.91 1013 10 16 0.00 0.00
7:53 pm 19:53 Sunny 81 27.2 77 25 88 88 S 5 7 29.91 1013 9 14 0.00 0.00
8:53 pm 20:53 Clear 79 26.1 77 25 94 94 Calm 29.93 1014 8 13 0.00 0.00
9:53 pm 21:53 Clear 78 25.6 76 24.4 93 93 Calm 29.94 1014 9 14 0.00 0.00
10:53 pm 22:53 Clear 77 25 76 24.4 96 96 Calm 29.94 1014 7 11 0.00 0.00
11:53 pm 23:53 Clear with Mist and Fog 75 23.9 75 23.9 100 100 Calm 29.95 1014 6 10 0.00 0.00

Powered by AerisWeather